465  
ASUS44 KMAF 131510  
RWRMAF  
MIDLAND AREA WEATHER ROUNDUP  
NATIONAL WEATHER SERVICE MIDLAND TX  
1000 AM CDT THU AUG 13 2020  
   
..IN SOUTHWEST TEXAS AND SOUTHEAST NEW MEXICO
 
 
 
CITY SKY/WX TMP DP RH WIND PRES REMARKS
 
ALPINE SUNNY 84 51 31 SW8 30.20R  
ANDREWS FAIR 85 59 41 S10 30.05S  
ARTESIA SUNNY 82 54 36 VRB3 30.07S  
BIG SPRING SUNNY 85 62 45 S20 30.03S  
CARLSBAD SUNNY 83 54 36 CALM 30.03S  
DRYDEN N/A 83 65 54 SE9 30.03S  
FORT STOCKTON SUNNY 87 57 35 S6 30.04R  
GUAD PASS SUNNY 80 47 31 W9 30.23R  
HOBBS NOT AVBL  
LAMESA NOT AVBL  
MARFA SUNNY 79 54 41 SE3 30.20S  
MIDLAND AIRPK N/A 86 61 43 S9 30.04S  
MIDLAND INTL SUNNY 85 60 42 S14 30.04R  
ODESSA SUNNY 85 59 41 S16 30.05R  
PECOS SUNNY 82 56 40 CALM 30.00S  
PRESIDIO FAIR 88 57 35 E5 30.05S  
SEMINOLE SUNNY 86 59 40 SW9 30.10R  
SNYDER SUNNY 84 62 46 S14 30.02S  
WINK SUNNY 86 58 38 S8 30.01R  

   
..OTHER STATIONS IN TEXAS
 
 
 
CITY SKY/WX TMP DP RH WIND PRES REMARKS
 
ABILENE SUNNY 87 68 52 SW18 30.00R  
AMARILLO SUNNY 79 57 46 NW21G28 30.00S  
AUSTIN MOSUNNY 85 74 69 SW13 30.01S  
BROWNSVILLE MOSUNNY 88 76 67 S12 29.96F  
CORPUS CHRISTI MOSUNNY 86 76 71 S15 29.99S  
DALLAS FTW MOSUNNY 88 74 63 SW12 29.94S  
DEL RIO SUNNY 85 71 63 E12 29.97R  
EL PASO MOSUNNY 88 47 24 N3 30.08R  
HOUSTON INT MOSUNNY 88 75 65 S5 30.00S  
LUBBOCK MOSUNNY 87 59 38 SW14 30.02S  
SAN ANGELO SUNNY 87 67 51 S14 30.01S  
SAN ANTONIO MOSUNNY 85 71 63 S10 30.02S  
WACO SUNNY 89 72 56 S10 29.98R  
WICHITA FALLS PTSUNNY 77 69 76 E9 30.00F  

   
..OTHER LOCATIONS IN NEW MEXICO
 
 
 
CITY SKY/WX TMP DP RH WIND PRES REMARKS
 
ALAMOGORDO MOSUNNY 79 50 36 SE3 30.12S  
ALBUQUERQUE MOSUNNY 77 46 33 N7 30.23R  
CANNON AFB MOSUNNY 83 54 36 W9 30.12R  
CLOVIS MOSUNNY 83 54 36 W15 30.11R  
HOLLOMAN AFB MOSUNNY 85 48 27 SE6 30.11R  
ROSWELL MOSUNNY 85 53 33 S5 30.06S  
RUIDOSO PTSUNNY 77 48 36 N3 30.35R  
SANTA FE SUNNY 76 40 27 N18G24 30.27S  
TRUTH OR CONSE SUNNY 86 47 25 N9 30.17R  
TUCUMCARI MOSUNNY 87 47 24 W8 30.06  

 
 
 
CLICK HERE TO GO TO PREVIOUS BULLETINS.

The Nexlab TX Page
The Nexlab NM Page Main Text Page